Aurora, OR

9:41 AM PDT on March 27, 2017 (GMT -0700)
Aurora State

Weather History for KUAO - February, 2014

Change the Weather History Date:

Sunday, February 9, 2014

  Actual Average Record
Temperature  
Mean Temperature 31 °F -  
Max Temperature 35 °F - 63 °F (2016)
Min Temperature 29 °F - 27 °F (2009)
Degree Days  
Heating Degree Days 33    
Month to date heating degree days 300  
Since 1 July heating degree days 3076  
Cooling Degree Days 0    
Month to date cooling degree days 0  
Year to date cooling degree days 0  
Moisture  
Dew Point 31 °F    
Average Humidity 96    
Maximum Humidity 100    
Minimum Humidity 92    
Precipitation  
Precipitation 0.01 in - 0.86 in (1969)
Month to date precipitation 0.59  
Year to date precipitation 3.16  
Sea Level Pressure  
Sea Level Pressure 30.08 in    
Wind  
Wind Speed 5 mph (North)    
Max Wind Speed 10 mph    
Max Gust Speed 12 mph    
Visibility 4 miles    
Events Fog , Rain , Snow    
T = Trace of Precipitation, MM = Missing Value Source: NWS Daily Summary

Daily Weather History Graph

Daily Weather History Graph

Search for Another Location

Airport or City:

Trip Planner

Search our weather history database for the weather conditions in past years. The results will help you decide how hot, cold, wet, or windy it might be!

Date:

Astronomy

Feb. 09, 2014 Rise Set
Actual Time 7:21 AM PST 5:30 PM PST
Civil Twilight 6:50 AM PST 6:00 PM PST
Nautical Twilight 6:15 AM PST 6:35 PM PST
Astronomical Twilight 5:41 AM PST 7:10 PM PST
Moon 1:09 PM PST (2/9) 3:35 AM PST (2/9)
Length of Visible Light 11h 10m
Length of Day
10h 09m
Waxing Gibbous, 78% of the Moon is Illuminated
Feb 9
Waxing Gibbous
Feb 14
Full
Feb 22
Last Quarter
Mar 1
New
Mar 8
First Quarter

Hourly Weather History & Observations

Time (PST) Temp. Windchill Dew Point Humidity Pressure Visibility Wind Dir Wind Speed Gust Speed Precip Events Conditions
12:17 AM 28.9 °F - 28.9 °F 100% 29.99 in 2.5 mi Calm Calm - N/A   Overcast
12:31 AM 28.9 °F - 28.9 °F 100% 30.00 in 3.0 mi Calm Calm - N/A   Overcast
12:53 AM 28.9 °F 25.2 °F 28.9 °F 100% 30.03 in 3.0 mi NW 3.5 mph - N/A   Overcast
1:40 AM 28.9 °F - 28.9 °F 100% 30.04 in 2.5 mi Calm Calm - N/A   Overcast
1:53 AM 30.0 °F - 28.9 °F 96% 30.06 in 2.5 mi Calm Calm - N/A   Overcast
2:53 AM 30.0 °F 25.2 °F 28.9 °F 96% 30.07 in 3.0 mi North 4.6 mph - N/A   Overcast
3:06 AM 30.0 °F 25.2 °F 28.9 °F 96% 30.06 in 2.5 mi North 4.6 mph - N/A   Overcast
3:16 AM 30.0 °F 25.2 °F 28.9 °F 96% 30.06 in 3.0 mi North 4.6 mph - N/A   Overcast
3:24 AM 30.0 °F 26.5 °F 28.9 °F 96% 30.06 in 2.5 mi North 3.5 mph - N/A   Overcast
3:31 AM 30.0 °F 25.2 °F 28.9 °F 96% 30.07 in 3.0 mi North 4.6 mph - N/A   Overcast
3:53 AM 30.0 °F 25.2 °F 28.9 °F 96% 30.07 in 4.0 mi North 4.6 mph - N/A   Overcast
4:14 AM 30.0 °F 24.1 °F 28.9 °F 96% 30.07 in 2.5 mi NNW 5.8 mph - 0.00 in Rain Light Freezing Rain
4:23 AM 30.0 °F 23.2 °F 28.9 °F 96% 30.07 in 2.5 mi NNW 6.9 mph - 0.00 in Snow Light Snow
4:53 AM 30.0 °F 23.2 °F 28.9 °F 96% 30.07 in 2.5 mi North 6.9 mph - 0.01 in Snow Light Snow
5:05 AM 30.0 °F 25.2 °F 28.9 °F 96% 30.07 in 3.0 mi North 4.6 mph - 0.00 in Snow Light Snow
5:53 AM 30.0 °F 24.1 °F 28.9 °F 96% 30.08 in 4.0 mi North 5.8 mph - 0.00 in   Overcast
6:53 AM 30.0 °F 25.2 °F 28.9 °F 96% 30.09 in 6.0 mi North 4.6 mph - N/A   Overcast
7:53 AM 30.0 °F 23.2 °F 28.9 °F 96% 30.09 in 2.0 mi North 6.9 mph - N/A   Overcast
8:02 AM 30.0 °F 24.1 °F 28.9 °F 96% 30.09 in 1.5 mi North 5.8 mph - N/A   Overcast
8:41 AM 30.0 °F 25.2 °F 30.0 °F 100% 30.09 in 0.8 mi North 4.6 mph - N/A   Overcast
8:53 AM 30.0 °F 24.1 °F 30.0 °F 100% 30.11 in 0.5 mi North 5.8 mph - N/A Fog Light Freezing Fog
9:50 AM 30.2 °F 22.6 °F 30.2 °F 100% 30.10 in 1.5 mi NNE 8.1 mph - N/A   Overcast
9:53 AM 30.9 °F 24.3 °F 30.0 °F 96% 30.10 in 1.5 mi NNE 6.9 mph - N/A   Overcast
10:29 AM 30.9 °F 26.2 °F 30.9 °F 100% 30.11 in 3.0 mi North 4.6 mph - N/A   Overcast
10:40 AM 32.0 °F 26.4 °F 30.9 °F 96% 30.11 in 2.0 mi North 5.8 mph - N/A   Overcast
10:53 AM 32.0 °F 26.4 °F 30.9 °F 96% 30.12 in 2.0 mi North 5.8 mph - N/A   Overcast
11:29 AM 32.0 °F 28.7 °F 30.9 °F 96% 30.11 in 3.0 mi NE 3.5 mph - N/A   Overcast
11:53 AM 33.1 °F 28.7 °F 32.0 °F 96% 30.11 in 5.0 mi NNE 4.6 mph - N/A   Overcast
12:53 PM 34.0 °F 29.8 °F 33.1 °F 96% 30.09 in 8.0 mi North 4.6 mph - N/A   Overcast
1:53 PM 34.0 °F 29.8 °F 32.0 °F 92% 30.07 in 5.0 mi North 4.6 mph - N/A   Overcast
2:45 PM 34.0 °F 27.2 °F 32.0 °F 92% 30.06 in 5.0 mi North 8.1 mph - N/A   Overcast
2:53 PM 34.0 °F 28.0 °F 32.0 °F 92% 30.06 in 5.0 mi North 6.9 mph - N/A   Overcast
3:25 PM 34.0 °F 28.0 °F 33.1 °F 96% 30.06 in 3.0 mi North 6.9 mph - N/A   Overcast
3:39 PM 34.0 °F 28.8 °F 33.1 °F 96% 30.06 in 2.0 mi North 5.8 mph - N/A   Overcast
3:53 PM 34.0 °F 28.0 °F 33.1 °F 96% 30.07 in 2.0 mi NNW 6.9 mph - N/A   Overcast
4:08 PM 34.0 °F 28.8 °F 33.1 °F 96% 30.06 in 3.0 mi North 5.8 mph - N/A   Overcast
4:15 PM 34.0 °F 28.8 °F 33.1 °F 96% 30.06 in 2.5 mi North 5.8 mph - N/A   Overcast
4:26 PM 34.0 °F 29.8 °F 33.1 °F 96% 30.06 in 3.0 mi North 4.6 mph - N/A   Overcast
4:34 PM 34.0 °F 28.8 °F 33.1 °F 96% 30.06 in 5.0 mi North 5.8 mph - N/A   Overcast
4:53 PM 34.0 °F 29.8 °F 33.1 °F 96% 30.07 in 4.0 mi North 4.6 mph - N/A   Overcast
5:02 PM 34.0 °F 29.8 °F 33.1 °F 96% 30.07 in 2.5 mi North 4.6 mph - N/A   Overcast
5:17 PM 34.0 °F 28.8 °F 33.1 °F 96% 30.08 in 3.0 mi North 5.8 mph - N/A   Overcast
5:35 PM 34.0 °F 28.8 °F 33.1 °F 96% 30.08 in 4.0 mi North 5.8 mph - N/A   Overcast
5:53 PM 34.0 °F 28.0 °F 32.0 °F 92% 30.09 in 7.0 mi North 6.9 mph - N/A   Overcast
6:30 PM 33.1 °F 26.9 °F 32.0 °F 96% 30.09 in 6.0 mi NNE 6.9 mph - N/A   Overcast
6:53 PM 34.0 °F 26.6 °F 32.0 °F 92% 30.10 in 6.0 mi NNE 9.2 mph - N/A   Overcast
7:48 PM 33.8 °F 30.8 °F 32.0 °F 93% 30.09 in 10.0 mi NNE 3.5 mph - N/A   Overcast
7:53 PM 33.1 °F 30.0 °F 32.0 °F 96% 30.09 in 10.0 mi NE 3.5 mph - N/A   Overcast
8:53 PM 32.0 °F 28.7 °F 30.9 °F 96% 30.11 in 4.0 mi NW 3.5 mph - N/A   Mostly Cloudy
9:53 PM 32.0 °F 28.7 °F 30.9 °F 96% 30.11 in 9.0 mi North 3.5 mph - N/A   Scattered Clouds
10:02 PM 32.0 °F 27.5 °F 30.0 °F 92% 30.10 in 9.0 mi North 4.6 mph - N/A   Mostly Cloudy
10:53 PM 32.0 °F - 30.9 °F 96% 30.12 in 8.0 mi Calm Calm - N/A   Overcast
11:53 PM 33.1 °F - 30.9 °F 92% 30.13 in 9.0 mi Calm Calm - N/A   Overcast